Location: Niles Junction
(37.5763°N, 121.9714°W)
Time: 04:30:33
(UTC+00:00)

CZ-2C R/B - Pass Details

Date: 29 October 2020
Orbit: 667 x 785 km, 98.2° (Epoch: 23 November)

Event Time Altitude Azimuth Distance (km) Brightness Sun altitude
Rises 13:10:36 0° 356° (N) 3,185 5.6 -16.4°
Reaches altitude 10° 13:13:27 10° 340° (NNW) 2,236 4.7 -15.8°
Enters shadow 13:16:06 19° 308° (NW) 1,678 3.8 -15.3°
